小惑星A/2020 H9

A/2020 H9

English version
Home page
Updated on July 8, 2020

---------------------------------------------------------------------

・ プロフィール

発見日 2020年4月28日
発見光度 21.85等
発見者 Pan-STARRS 1 telescope (Haleakala)

・ 軌道要素

Epoch 2019 Dec. 23.0 TT = JDT 2458840.5
T 2019 Dec. 21.14672 TT                                 Rudenko
q   2.5779787            (2000.0)            P               Q
z  +0.0026255      Peri.  312.82315     -0.27216979     -0.88968226
 +/-0.0000858      Node   213.11810     -0.56289900     -0.16177915
e   0.9932316      Incl.  137.85864     -0.78042829     +0.42695782
H   18.0
From 45 observations 2020 Apr. 22-June 21, mean residual 0".3.

・ 光度変化

        H = 17.5  G = 0.15

---------------------------------------------------------------------

軌道要素はM.P.E.C. 2020-N08に掲載されたものです。
光度グラフはComet for Windowsで作成したものです。

---------------------------------------------------------------------

Copyright(C) Seiichi Yoshida (comet@aerith.net). All rights reserved.